Wind_Speed
10 9 11 12 12 14 16 16 17 17 15 13 12 11 13 12 11 12 14 18 18 13 12 14 11 12 10 8 7 4 3 2 5 9 10 12 13 11 11 11 9 10 9 8 7 6 6 6 5 7 8 8 11 12 11 10 10 10 10 10 10 8 7 6 4 2 1 3 5 6 6 6 4 6 9 9 8 7 6 5 4 5 8 11 13 14
11 11 13 15 16 17 17 17 17 19 18 14 11 10 12 12 10 12 15 19 18 12 12 14 12 14 10 8 7 6 7 8 8 9 12 16 15 12 11 11 10 10 7 6 8 12 13 13 12 12 12 12 13 14 15 15 14 15 14 13 11 8 7 7 5 3 3 4 4 5 5 5 5 6 8 9 8 8 6 6 7 8 9 11 13 14
12 12 15 17 17 16 17 17 16 19 18 14 10 8 9 10 9 11 15 19 17 10 11 14 13 12 11 10 9 9 9 12 15 14 14 15 15 12 10 10 11 10 7 7 9 12 15 17 17 16 16 15 14 15 17 17 15 15 14 13 11 9 7 7 5 4 5 5 5 4 4 4 3 5 8 9 9 8 8 9 9 9 10 12 14 14
10 12 16 17 16 17 17 16 17 17 14 11 10 7 9 10 10 9 12 17 16 10 11 15 14 10 11 10 8 9 10 12 14 14 13 13 14 13 11 11 11 11 9 9 10 10 13 15 16 16 15 15 16 17 18 18 16 15 14 12 10 9 7 7 6 5 5 5 5 4 4 3 2 4 6 8 8 9 10 10 10 10 12 14 15 16
12 12 16 18 18 19 18 16 17 13 10 11 12 9 9 12 14 11 8 12 13 12 15 12 12 8 10 10 8 8 9 11 11 10 11 11 11 12 12 12 11 11 9 10 10 9 11 13 14 15 15 16 17 17 17 17 17 16 16 14 11 10 9 8 7 7 6 6 6 5 4 3 3 4 5 7 8 8 10 11 10 10 11 13 15 16
13 14 16 19 19 19 18 15 16 13 9 10 13 14 14 12 16 13 12 12 9 10 16 11 9 7 10 11 10 9 9 11 9 9 10 8 9 9 10 11 10 10 9 9 10 10 11 12 13 14 15 15 15 15 15 15 16 16 16 16 15 13 12 10 10 9 8 8 8 6 5 5 4 4 5 8 8 8 10 11 10 11 11 12 13 14
11 15 17 19 19 19 18 15 16 16 10 7 11 16 18 13 15 13 16 12 8 8 12 11 7 6 9 11 12 12 10 12 9 8 9 7 7 7 8 9 8 9 9 9 10 11 12 12 13 14 14 14 14 14 15 15 15 15 15 16 15 14 13 13 13 12 10 10 9 8 7 7 7 6 6 7 8 9 11 12 11 12 12 13 13 14
12 17 17 19 19 17 15 13 14 17 11 7 11 16 17 15 16 13 17 11 8 8 10 12 10 7 8 12 16 16 13 13 10 8 8 6 7 8 8 9 8 9 8 8 10 10 12 13 13 13 13 14 14 14 14 15 15 15 15 16 15 14 14 14 14 14 13 11 11 10 9 9 9 8 8 8 9 10 10 11 12 11 12 13 13 15
13 17 17 19 18 14 13 13 15 18 13 10 12 14 15 16 17 13 14 11 8 8 10 13 13 8 6 10 16 16 13 13 12 9 8 8 8 9 8 9 9 9 9 9 9 10 12 13 13 13 14 14 14 14 14 14 15 16 16 16 16 16 15 15 15 15 14 13 12 11 11 11 11 11 11 11 12 12 12 12 12 12 13 14 14 15
13 15 17 16 14 12 13 15 17 17 13 12 14 12 13 15 13 12 10 11 9 8 9 12 13 9 5 9 13 13 12 12 12 10 9 9 9 8 8 8 8 8 9 9 9 11 12 12 13 14 14 14 14 14 14 14 15 16 17 16 17 17 16 16 15 15 16 15 15 14 14 14 13 13 13 14 14 14 15 14 14 14 14 15 15 15
13 14 15 12 12 12 14 16 17 16 14 14 15 11 12 12 9 10 8 8 7 7 11 15 16 12 7 8 10 10 11 14 14 11 10 10 10 9 8 8 8 7 8 9 9 10 12 12 13 14 14 13 13 14 14 14 14 14 15 15 15 16 15 15 15 16 16 16 16 16 16 16 16 16 15 15 15 15 16 16 15 15 15 15 15 15
15 14 11 10 12 13 13 15 15 15 16 14 13 10 10 8 7 8 6 7 6 7 12 16 16 15 9 5 8 8 11 15 15 13 13 13 11 10 9 8 8 8 8 8 8 8 10 11 12 12 13 13 13 13 14 13 13 12 14 14 13 14 14 14 15 16 17 17 17 17 18 18 17 17 17 16 16 17 18 17 17 16 15 15 17 17
14 14 13 12 14 14 13 12 12 13 14 13 11 9 9 8 7 7 7 8 7 8 13 16 15 10 3 2 6 10 13 14 14 13 14 14 12 11 10 9 8 7 8 8 7 7 8 9 11 11 12 12 12 13 13 13 12 12 14 14 14 14 14 14 14 14 15 16 17 18 18 19 19 19 18 17 17 18 20 19 17 17 16 16 17 18
11 13 16 15 13 13 14 10 10 11 11 13 12 9 9 9 7 7 7 8 8 9 13 17 14 7 4 4 5 11 15 14 14 13 13 13 12 11 10 9 8 8 9 8 7 7 7 8 9 10 11 11 11 12 12 13 13 13 14 14 14 13 13 13 13 13 14 15 15 16 18 19 19 19 19 18 18 19 21 21 19 18 18 18 18 17
13 12 13 13 10 12 16 13 10 11 11 12 12 10 9 9 7 7 7 7 7 9 11 12 7 4 5 4 7 12 14 14 13 13 13 12 11 10 9 9 9 9 8 8 7 7 8 9 9 10 11 11 11 12 12 13 13 12 13 14 14 13 13 12 10 11 12 13 13 15 16 17 18 17 17 17 18 19 21 22 21 20 20 20 20 17
14 11 12 15 13 15 18 16 13 12 11 10 11 11 10 10 9 5 6 6 3 4 8 5 1 4 5 7 11 14 13 14 13 13 14 13 11 10 9 9 8 8 8 7 7 7 8 9 9 10 10 10 11 11 11 12 12 13 13 13 14 14 15 15 12 12 14 13 13 13 13 16 17 16 17 17 18 20 21 21 22 23 23 21 21 19
12 10 14 19 16 18 19 17 16 13 9 8 10 12 10 12 11 4 5 5 1 3 4 5 6 5 6 6 9 13 14 13 13 13 13 13 12 11 9 8 8 8 7 6 6 6 8 9 9 10 9 10 10 10 11 12 12 13 12 11 13 14 16 17 15 15 16 16 16 16 14 17 18 17 17 18 19 20 20 20 21 23 24 23 22 21
10 9 14 20 17 17 17 17 19 16 11 8 9 11 9 11 11 4 3 5 4 5 3 8 10 9 7 4 7 13 14 13 13 13 13 12 12 11 9 8 8 8 7 7 7 7 8 8 9 9 9 10 10 10 11 12 12 12 10 12 15 15 16 17 15 15 16 16 18 20 19 19 19 18 18 19 20 21 20 20 20 22 23 24 23 23
11 9 11 18 16 15 15 16 16 16 17 14 9 9 7 7 8 5 3 5 6 6 3 7 11 10 6 6 11 14 14 14 13 12 12 11 11 11 10 9 9 8 6 7 6 6 7 8 8 8 10 10 11 11 11 11 12 11 11 15 17 15 14 15 15 16 17 16 17 20 22 22 21 19 20 20 21 21 20 20 21 22 22 24 24 24
9 8 8 16 17 14 12 11 11 11 16 17 12 10 8 7 7 7 5 5 6 6 5 5 7 5 4 8 15 17 15 16 14 12 11 11 10 10 9 8 8 7 6 6 5 6 7 7 7 9 11 11 11 11 11 12 13 13 13 15 16 15 14 15 18 18 18 19 19 19 21 22 21 20 21 21 21 20 20 21 21 22 22 23 23 23
8 7 6 12 16 14 10 10 12 12 13 14 12 11 10 7 7 8 7 7 7 6 5 5 4 3 2 2 12 16 15 15 15 13 11 11 11 10 10 9 7 6 6 6 6 6 5 6 9 10 11 12 12 12 12 13 14 14 14 14 15 16 16 16 18 18 17 19 19 19 20 20 21 21 22 22 21 21 21 21 21 21 21 22 23 23
6 6 5 8 13 12 11 13 16 15 13 13 11 11 11 10 8 8 8 9 9 7 6 4 4 4 2 4 3 12 15 14 14 14 12 11 11 11 10 9 8 7 6 6 6 5 4 7 10 10 11 13 12 12 13 13 13 13 14 14 15 16 16 16 17 17 18 18 18 19 20 20 20 21 22 23 22 22 23 22 22 22 22 22 22 22
4 4 6 8 9 12 14 16 18 19 18 16 13 11 11 9 9 9 7 7 8 8 7 2 3 3 3 7 1 9 15 14 14 14 13 11 11 11 10 10 8 7 7 6 6 5 6 9 11 10 11 12 11 11 12 12 13 14 14 14 15 16 16 16 16 17 19 19 19 20 21 21 22 22 23 23 22 23 24 23 23 22 22 22 22 22
4 3 7 8 8 12 15 15 17 19 19 15 12 12 12 11 12 10 7 4 4 7 6 3 4 2 3 6 2 11 15 14 12 13 14 12 10 11 11 10 9 8 8 7 7 7 8 10 10 9 9 9 9 10 12 13 13 14 15 15 16 17 17 17 17 18 19 19 19 21 22 23 23 23 24 24 23 24 24 24 23 23 23 23 23 23
5 5 8 8 8 10 11 12 14 17 15 10 10 14 15 15 14 11 7 4 2 8 10 3 3 3 2 1 6 14 15 14 13 13 14 12 10 10 10 9 9 8 9 8 8 8 8 10 11 9 8 8 10 12 12 13 13 14 16 17 17 17 17 18 18 18 19 20 21 22 23 23 23 24 24 24 24 25 25 24 24 24 23 23 24 24
6 6 6 8 9 10 10 10 10 12 11 9 13 19 19 18 16 10 6 5 4 8 9 2 6 7 6 6 11 15 15 15 14 13 13 12 11 11 10 9 9 9 9 9 9 8 8 10 12 13 12 11 14 15 14 14 15 16 17 18 17 18 18 19 20 20 20 21 22 22 23 23 23 24 24 25 25 25 25 25 25 25 24 24 24 24
5 6 8 11 10 7 8 11 11 11 12 13 15 18 18 18 18 11 6 6 6 4 1 3 13 16 11 11 14 15 15 15 14 13 13 11 11 11 10 10 10 9 9 9 9 9 9 9 11 13 14 14 14 15 14 14 15 17 18 18 18 19 20 20 20 20 21 21 21 22 22 22 23 23 24 25 25 25 26 26 26 26 25 24 24 25
4 6 10 11 8 3 3 7 12 15 15 15 16 16 15 16 17 12 5 2 2 1 2 6 17 20 14 13 15 15 15 15 14 14 13 11 11 11 11 11 11 10 10 9 9 9 9 9 10 11 12 12 13 13 13 14 16 17 17 17 17 19 20 20 20 20 20 21 21 21 22 22 22 23 24 24 25 25 26 26 27 26 26 25 25 25
4 6 6 5 5 4 3 4 7 12 14 13 14 15 13 13 14 11 2 7 6 3 7 12 17 17 15 14 14 13 13 13 12 12 12 12 12 12 12 12 12 11 10 9 9 9 9 9 10 10 11 11 12 13 13 15 16 16 17 17 17 18 19 19 19 19 19 20 20 21 21 22 22 23 24 24 25 26 26 27 27 27 26 26 26 25
5 4 5 3 5 8 7 2 6 9 12 14 16 16 14 10 9 9 6 14 13 11 15 18 17 15 14 14 12 11 10 11 9 9 11 13 13 13 13 13 12 11 10 9 9 9 9 10 10 10 11 12 12 13 14 15 15 16 17 17 17 18 18 18 18 18 19 19 19 20 20 21 22 23 24 25 25 26 26 26 27 28 27 26 27 26
5 3 6 5 4 7 6 3 1 2 3 9 14 13 8 1 5 3 11 17 16 14 17 20 18 13 11 12 12 10 9 10 10 10 11 12 12 13 13 12 11 11 10 9 9 9 9 9 10 10 11 11 12 13 13 14 15 15 16 16 16 17 16 17 17 17 17 17 18 19 20 21 22 23 23 24 25 25 26 26 27 27 27 27 27 28
6 3 3 4 5 8 7 7 6 8 10 6 3 5 6 8 9 7 8 9 13 17 17 16 13 9 10 13 12 11 11 13 13 12 11 10 12 13 12 12 11 10 10 9 9 8 9 9 10 10 11 11 12 12 13 14 14 15 15 15 15 15 15 16 16 16 16 17 18 19 20 21 21 22 23 24 24 25 25 25 26 27 27 27 27 28
5 4 2 4 6 4 5 8 10 9 8 7 9 11 9 7 9 9 9 7 12 16 11 8 9 12 15 16 15 15 14 14 12 10 9 10 11 12 12 12 11 10 9 9 8 8 8 9 9 10 11 11 12 12 13 13 13 14 14 15 15 15 14 15 16 16 17 18 19 20 20 21 21 22 23 23 24 24 25 25 26 27 27 27 27 28
6 6 3 4 5 3 4 7 10 7 4 3 4 7 3 9 12 13 12 11 11 10 7 9 14 17 16 15 16 17 15 12 10 8 7 8 8 10 12 12 11 10 9 9 8 8 9 9 9 10 10 10 11 11 12 12 13 13 13 14 14 15 15 16 16 17 18 19 20 21 21 21 22 22 23 23 24 24 25 25 26 26 27 26 27 28
6 7 5 0 1 4 4 5 7 5 2 0 4 4 9 15 16 17 15 13 12 13 16 19 19 18 16 15 16 17 15 13 11 8 8 8 8 10 11 11 10 10 9 8 8 9 10 9 10 10 9 10 11 11 12 12 12 12 13 14 14 15 15 16 16 18 18 19 20 21 21 22 22 22 23 23 24 24 25 25 25 25 26 25 26 27
7 6 4 3 2 5 4 4 4 2 0 1 3 9 13 12 12 14 13 11 10 11 16 19 18 18 18 17 16 15 15 13 10 8 9 9 9 9 9 9 10 10 9 9 9 10 10 10 11 10 9 10 11 11 11 11 11 12 13 13 13 14 14 15 17 17 17 18 19 20 21 22 22 22 23 24 24 24 24 25 25 25 25 24 24 26
8 6 5 4 2 4 4 3 3 2 1 2 6 8 7 5 5 7 7 6 6 8 13 17 19 19 19 18 17 17 16 13 10 8 8 8 8 9 10 11 12 11 11 12 11 11 11 11 10 10 10 11 11 11 11 11 11 12 11 11 12 13 14 15 15 16 17 18 18 19 21 22 22 23 23 24 25 24 24 25 25 26 26 24 23 25
5 4 4 5 4 5 5 5 4 5 4 3 7 7 6 7 8 11 9 5 5 9 13 17 19 20 19 19 19 18 14 11 9 7 7 8 9 10 12 13 13 13 12 12 11 11 11 11 10 9 10 11 11 11 11 11 11 11 11 12 13 14 15 15 14 16 17 18 18 19 20 21 21 22 22 23 25 24 24 24 25 26 26 24 23 24
6 2 1 2 4 5 5 5 5 3 2 5 11 10 7 8 11 10 6 3 7 12 14 16 18 19 19 19 18 15 9 7 7 7 8 10 11 11 12 13 13 13 12 11 11 11 10 9 9 9 10 11 12 12 12 12 12 12 12 13 13 13 14 15 15 16 17 17 17 18 19 20 21 21 22 23 24 24 24 24 24 25 26 25 24 23
7 4 2 1 4 4 4 3 3 2 3 6 12 11 7 7 8 5 3 5 12 15 15 16 18 17 17 17 14 9 5 5 8 10 11 13 14 13 13 13 13 13 12 11 10 10 10 9 9 10 11 12 12 12 12 12 12 12 12 13 13 13 13 14 15 15 15 15 16 17 18 19 20 21 22 23 24 24 24 24 24 25 25 24 24 24
4 3 1 2 4 5 4 3 3 3 4 6 10 10 8 7 6 5 2 6 15 17 15 16 17 16 16 14 8 4 4 8 11 13 13 14 14 13 14 14 13 13 12 11 9 9 10 10 10 11 11 11 11 11 11 11 10 11 12 13 13 13 13 13 14 14 14 15 16 17 17 18 19 19 20 22 23 22 23 24 25 25 24 23 23 23
3 2 0 2 2 2 3 3 4 3 1 3 7 8 6 5 4 1 4 10 16 17 15 16 16 15 14 10 6 7 11 14 15 15 14 14 13 13 15 14 13 12 11 10 9 10 11 10 11 11 10 10 11 11 11 11 11 12 12 12 12 13 13 12 13 14 15 16 16 16 16 16 16 17 18 20 22 21 21 22 23 25 24 23 22 22
3 3 3 1 1 2 2 3 3 2 1 4 6 6 1 2 3 6 10 13 15 15 15 15 13 12 11 10 11 14 16 17 16 15 14 13 13 15 16 14 13 12 10 9 9 12 12 10 10 10 10 10 11 10 11 11 11 12 11 11 11 12 12 12 13 14 13 14 14 14 15 16 15 15 17 19 20 20 20 19 21 23 24 23 22 21
3 1 3 2 1 1 3 2 1 4 5 5 5 5 4 5 8 10 12 13 13 13 13 12 11 12 12 13 15 16 16 17 16 15 15 13 13 15 15 15 15 14 11 9 11 12 12 11 11 10 10 10 10 10 10 10 10 11 11 12 12 12 11 12 13 13 13 14 14 14 15 16 14 12 15 16 17 18 19 19 19 21 22 22 22 21
4 5 6 5 3 2 4 4 4 6 6 4 5 8 11 12 12 12 13 13 13 12 11 11 12 14 14 16 16 15 15 15 15 15 14 13 13 15 14 14 14 13 12 12 12 12 12 11 11 10 10 10 9 9 9 9 10 11 12 13 12 12 12 12 12 13 15 15 14 14 16 16 14 11 12 14 15 16 18 18 18 18 20 20 20 21
8 9 9 8 8 8 8 5 6 8 8 9 10 11 12 12 12 13 14 13 13 13 13 12 14 15 15 16 15 14 14 15 15 15 14 13 14 16 15 14 14 13 12 12 12 12 12 12 11 10 10 9 8 8 8 8 9 10 10 11 11 11 11 12 12 13 15 14 14 14 15 16 15 12 11 12 13 14 15 17 16 16 18 19 19 19
9 9 8 8 10 8 5 4 7 10 10 11 12 12 13 14 12 12 12 12 13 14 14 15 16 16 16 15 14 15 16 16 15 14 13 13 13 14 16 15 14 13 12 11 10 10 11 11 11 10 10 9 8 8 7 7 7 8 9 10 10 11 11 11 12 13 14 13 14 14 14 14 16 15 11 10 12 12 13 15 15 15 17 17 17 18
7 9 9 8 8 8 8 9 10 11 11 12 11 10 12 13 13 13 13 13 14 15 16 17 17 15 14 14 15 16 16 16 15 15 13 12 13 14 15 15 14 14 12 10 9 10 11 11 11 9 9 9 8 8 7 7 7 9 9 10 10 11 11 11 12 12 13 13 15 16 15 15 18 18 14 10 10 11 12 12 12 12 15 17 17 17
7 7 8 10 11 10 10 11 12 11 11 11 11 11 11 12 14 15 16 16 17 17 18 18 17 15 16 17 16 16 16 15 16 15 13 12 13 15 15 14 14 14 12 9 9 11 12 11 10 9 9 9 8 8 8 7 9 9 9 8 10 11 10 10 11 12 12 13 13 16 16 15 15 17 16 12 8 7 9 11 11 10 11 14 16 17
8 8 9 10 10 8 10 12 12 10 9 9 11 13 14 14 15 16 17 18 18 18 17 17 17 17 19 20 19 17 15 15 16 16 15 13 14 16 16 15 15 14 12 11 11 12 12 11 9 9 9 8 8 8 8 8 8 8 8 8 9 10 9 10 11 13 13 12 12 13 15 16 16 18 19 16 10 6 4 6 9 10 11 11 12 14
6 5 4 7 7 8 13 15 11 9 10 11 13 14 14 14 15 16 17 17 17 18 17 17 17 17 17 19 21 19 14 14 16 18 16 15 16 17 16 15 15 14 14 13 13 12 12 10 9 9 8 8 8 8 8 8 7 7 7 8 9 9 9 9 10 12 14 14 13 13 14 16 17 17 16 16 15 13 7 4 5 7 9 10 10 11
Wind_Direction
194 200 207 213 211 207 211 214 223 234 231 218 207 211 225 226 227 213 172 162 183 198 196 203 187 155 153 146 139 138 126 114 119 113 103 108 106 96 99 97 88 83 77 79 80 65 40 47 65 51 46 53 53 55 62 69 70 69 78 90 91 90 87 75 68 55 330 306 295 284 276 272 266 263 271 278 271 259 252 246 258 246 229 237 239 231
202 213 213 211 214 211 211 215 222 237 246 242 223 208 223 233 224 202 171 161 180 200 200 190 159 143 136 112 94 72 78 62 57 74 77 91 101 97 97 95 90 86 84 92 79 63 49 44 54 57 55 55 54 54 55 56 59 59 60 66 67 68 69 57 42 22 358 336 321 317 315 311 302 285 281 284 276 261 252 250 260 259 251 253 252 245
206 218 215 209 215 217 215 214 219 234 243 253 247 216 218 230 224 207 181 166 175 202 201 172 145 132 116 98 82 66 71 63 54 58 68 86 95 96 99 96 95 94 84 79 70 63 54 46 48 49 48 50 51 51 49 47 50 52 52 52 51 51 48 44 32 8 1 346 329 328 323 314 304 298 294 288 284 282 277 271 267 259 259 263 262 259
203 214 213 209 213 218 219 212 215 231 235 243 251 229 217 215 218 219 187 170 169 194 207 160 137 132 122 116 102 80 78 76 68 67 71 80 86 92 99 96 97 97 87 78 73 65 59 52 48 47 45 45 45 44 41 39 39 40 42 43 46 48 41 40 32 7 359 341 328 330 315 299 280 290 303 296 284 285 286 282 275 263 260 264 265 265
208 203 206 210 210 212 220 213 211 225 225 229 240 238 226 206 216 227 177 166 167 193 218 171 133 143 140 138 130 106 94 92 87 83 80 81 86 87 87 88 89 91 86 82 80 74 68 61 53 50 47 44 42 41 37 34 34 31 33 37 41 46 44 40 31 10 356 340 329 330 317 305 286 277 295 297 287 285 284 282 281 275 267 265 265 266
214 200 198 209 210 208 217 214 209 218 217 222 229 239 244 218 218 216 159 162 177 196 219 190 143 158 158 159 153 138 118 103 99 97 90 83 86 86 83 84 83 83 84 84 83 78 75 70 62 56 50 47 42 38 37 36 35 31 30 36 39 41 40 33 25 12 360 348 337 334 330 325 316 301 293 294 292 287 283 283 283 281 276 272 272 269
214 204 196 206 209 206 215 216 207 211 218 219 216 233 252 243 230 207 153 165 200 199 217 202 171 174 178 180 162 146 129 111 107 104 99 86 84 86 81 82 84 87 88 86 81 73 71 69 64 60 53 50 45 37 35 34 35 32 29 31 31 34 33 24 20 15 7 358 348 341 337 331 323 318 306 299 295 287 286 287 283 281 279 276 274 271
205 206 200 203 207 204 212 216 201 204 217 223 208 221 242 249 246 212 156 167 211 203 220 212 198 208 202 182 159 148 134 118 120 119 111 99 89 87 82 81 83 88 89 85 81 75 73 69 65 64 57 54 50 41 37 34 32 29 28 28 26 27 26 18 15 13 8 360 351 345 342 339 335 327 318 311 302 294 292 290 285 286 283 278 274 271
195 211 206 198 206 207 205 211 203 202 213 224 212 208 225 242 254 234 177 175 203 206 227 214 202 221 209 164 152 152 150 137 132 130 125 115 100 92 89 88 85 86 83 78 77 75 74 72 68 67 63 56 50 46 42 38 34 29 28 29 27 25 22 15 10 7 4 359 352 349 347 345 342 338 333 324 315 309 305 298 294 293 288 284 284 281
185 214 218 197 204 213 200 207 211 203 204 227 224 203 214 234 255 258 217 188 190 204 231 215 199 218 203 150 152 163 169 157 141 136 132 120 112 105 100 100 97 92 85 76 74 72 70 71 67 64 62 59 52 47 44 40 37 33 28 28 28 24 18 13 9 4 2 0 358 355 353 348 342 340 337 330 325 321 317 311 306 303 297 293 294 291
186 205 229 208 201 212 202 205 213 205 198 223 237 216 209 224 248 267 239 194 193 210 229 220 202 210 211 157 164 181 175 155 141 141 138 126 122 118 113 112 103 92 85 78 71 66 64 64 63 59 56 55 51 48 46 42 39 35 29 28 29 25 18 13 9 5 4 3 3 0 357 354 348 344 338 331 326 320 317 316 316 315 312 309 308 300
201 194 222 221 202 206 206 203 208 206 198 214 238 224 205 206 229 254 227 187 203 216 229 228 208 208 219 179 174 182 161 144 139 146 143 134 131 125 120 117 104 90 83 78 69 61 58 55 54 55 52 47 45 44 44 44 41 37 32 29 29 28 22 16 10 6 5 4 3 2 360 357 353 348 342 334 329 325 323 323 323 324 322 317 314 307
213 197 200 212 199 199 208 201 201 204 197 209 228 220 205 195 201 233 221 197 208 217 225 225 209 202 210 113 137 135 129 129 133 141 140 133 131 128 123 115 104 92 80 72 65 58 53 49 46 46 47 44 40 40 41 40 38 34 30 28 29 27 21 18 13 10 9 5 2 1 1 358 354 351 347 341 337 336 336 334 330 327 323 317 313 311
210 203 195 200 192 197 216 210 194 197 195 205 216 212 209 202 193 213 221 210 213 221 226 222 210 181 114 61 84 109 112 117 126 132 131 127 123 120 117 109 98 87 78 68 62 58 51 49 48 45 45 44 41 42 43 40 36 33 29 28 27 24 23 21 19 17 13 7 4 2 359 356 352 351 348 344 342 340 340 340 335 327 321 317 314 312
204 205 187 192 189 192 216 224 204 191 195 205 213 217 213 205 204 208 217 225 219 226 234 227 215 160 141 118 96 107 111 115 123 125 122 120 116 113 107 101 92 83 77 70 63 59 53 51 51 51 48 45 43 43 44 43 41 36 30 28 26 22 20 18 21 26 19 13 10 5 1 358 353 350 346 341 341 341 340 340 338 333 327 321 317 313
207 212 181 187 202 196 207 225 212 193 196 204 213 222 210 204 216 207 206 230 232 237 236 216 78 66 117 119 113 118 120 126 130 127 125 121 116 113 104 97 91 82 75 70 65 58 56 54 53 55 53 49 47 42 42 46 45 39 32 29 28 22 13 8 14 28 27 24 14 2 3 5 357 352 349 343 341 341 339 338 336 335 335 332 326 321
202 215 185 184 203 204 204 215 214 205 198 192 213 224 201 200 223 218 195 219 244 255 226 122 97 99 114 123 132 130 128 137 141 134 131 125 118 113 103 97 93 85 79 74 71 61 56 56 56 59 58 55 53 45 43 43 43 41 31 24 31 27 14 9 13 24 26 22 11 360 2 8 2 358 355 349 345 343 340 338 335 334 334 335 334 331
206 219 194 185 197 204 201 211 220 221 211 194 212 220 195 201 226 230 197 208 209 234 215 122 134 150 145 146 152 146 145 150 151 143 135 129 122 112 105 104 97 92 90 81 75 67 62 62 61 63 64 61 58 52 48 42 40 40 25 23 35 32 21 12 7 17 23 19 11 2 1 7 7 3 360 354 349 345 342 341 339 336 334 333 334 334
209 222 192 181 194 197 192 209 223 220 214 212 207 198 197 213 221 214 208 210 207 220 205 132 145 162 162 154 159 163 162 158 155 148 139 132 124 114 109 109 102 95 90 79 74 67 64 65 64 67 66 62 58 54 51 45 41 36 24 29 35 32 27 12 359 11 22 21 16 5 1 6 7 4 1 356 352 349 346 344 342 339 336 334 334 334
204 230 193 176 191 195 185 204 221 205 203 214 208 190 206 229 219 209 206 210 218 223 203 156 163 177 149 153 169 170 163 158 155 147 140 134 124 118 114 110 104 99 89 83 81 72 68 71 74 74 66 61 58 53 51 48 41 34 30 32 29 25 28 14 3 15 23 18 17 10 4 4 4 3 1 356 356 354 349 346 345 342 339 338 339 337
194 228 214 178 187 196 192 199 214 208 197 207 212 196 199 218 226 221 205 204 224 227 201 172 170 165 77 142 178 168 157 155 150 142 138 132 122 116 113 109 106 104 95 88 85 78 80 82 75 70 62 58 56 51 50 49 43 36 34 35 28 24 25 18 11 17 20 16 15 12 8 6 3 2 360 357 359 357 352 349 348 346 344 342 341 340
187 210 214 187 184 196 202 196 208 218 205 196 207 208 203 203 215 223 212 204 214 228 224 193 151 136 36 338 198 158 151 148 143 139 133 125 119 113 110 112 112 109 100 92 92 98 101 82 71 67 64 60 55 49 50 51 47 40 36 37 34 28 26 22 14 14 20 19 14 12 10 7 5 3 1 359 359 358 356 354 352 350 348 346 344 343
178 213 210 199 192 202 207 195 201 219 219 208 206 212 213 205 204 218 227 211 205 225 236 192 101 99 5 336 338 140 143 141 137 136 128 120 118 114 114 118 117 112 105 97 100 102 87 73 67 63 63 61 56 50 49 49 47 41 36 36 36 32 28 24 16 17 21 18 14 14 10 7 6 5 3 2 360 359 359 357 355 353 351 349 348 345
159 220 209 198 196 209 210 196 195 214 226 223 208 208 222 221 205 207 229 223 196 225 223 106 83 105 11 341 62 122 131 134 129 127 125 123 122 121 121 122 119 113 109 108 108 103 96 92 85 75 71 69 65 61 55 51 48 42 37 35 34 32 29 23 19 20 21 16 15 14 11 10 8 5 5 3 0 0 0 359 358 356 354 352 351 349
160 209 208 197 189 199 205 196 193 203 215 220 206 206 221 230 222 213 220 214 192 234 227 163 99 130 107 63 115 119 125 129 125 124 125 126 126 124 122 120 118 114 110 107 97 87 86 85 74 63 67 72 62 58 55 49 47 45 40 35 32 30 29 24 20 20 20 17 15 14 12 11 8 5 4 2 2 2 1 1 2 360 358 356 354 352
175 200 199 202 194 191 199 200 194 194 203 213 212 209 211 222 230 221 205 209 208 225 233 174 115 124 124 128 127 127 130 129 127 128 127 127 126 124 124 121 119 115 109 102 90 77 65 54 46 39 40 45 45 45 44 39 37 40 39 34 29 28 28 25 20 20 20 18 16 13 11 10 8 6 4 2 3 4 2 3 4 3 1 359 357 356
183 201 201 214 208 196 209 209 198 193 201 207 210 212 209 216 232 233 210 223 220 197 258 105 136 141 144 147 141 139 137 132 133 132 128 128 126 124 125 123 121 116 106 101 94 84 70 54 47 42 37 36 38 40 40 37 35 35 35 32 29 28 28 25 20 20 21 19 17 12 9 10 7 5 5 3 4 4 4 5 5 5 3 1 0 359
194 204 202 220 226 237 257 222 212 210 207 204 206 216 216 214 228 240 216 197 242 171 88 127 140 141 151 159 149 145 141 135 137 135 131 132 129 126 127 123 119 111 102 98 91 83 78 68 59 53 44 38 40 41 40 40 38 35 33 31 29 29 29 26 22 22 21 19 17 12 9 9 7 6 7 5 5 6 6 6 6 6 5 4 3 1
202 203 188 228 246 246 265 293 264 232 212 203 205 218 228 217 218 228 165 73 55 94 135 143 141 138 147 155 146 142 139 134 133 132 130 132 129 127 127 121 115 108 101 96 86 78 78 74 66 59 54 48 44 41 39 40 37 34 33 32 30 30 30 27 23 22 22 19 16 12 11 10 7 7 7 5 6 8 7 6 6 6 6 5 4 3
207 187 154 198 241 233 222 282 296 251 222 213 207 213 229 233 229 222 133 91 90 110 128 136 133 129 139 146 139 132 129 127 130 132 134 135 132 131 126 118 112 108 103 97 90 85 78 73 69 63 57 51 45 41 39 39 36 33 33 32 31 30 31 29 26 24 21 19 15 12 12 10 8 8 7 6 6 7 6 6 6 5 6 5 5 4
199 157 147 173 218 228 194 136 299 293 270 229 210 207 216 17 26 82 104 97 99 110 120 124 121 121 134 136 129 124 127 133 137 141 139 134 133 131 122 115 113 110 106 100 93 89 82 75 72 65 58 53 48 43 41 41 38 35 34 34 32 31 31 32 31 27 23 19 16 14 13 11 10 9 8 8 6 6 6 6 5 6 5 4 5 4
187 158 151 176 198 208 176 135 116 79 54 40 40 26 31 52 54 65 84 100 119 123 124 124 125 135 139 130 125 128 137 141 141 142 137 132 133 128 118 116 116 110 107 101 92 88 83 75 70 63 59 55 50 45 43 42 41 38 35 35 35 33 34 37 36 30 26 23 20 18 16 14 12 10 9 8 7 7 7 7 6 6 4 4 5 4
168 139 139 200 195 189 152 129 116 98 83 67 36 11 17 68 85 77 62 73 118 130 139 145 143 143 138 134 134 138 142 143 140 137 133 131 129 121 115 117 115 111 107 99 93 89 82 76 71 65 60 56 51 48 45 43 44 41 35 34 35 31 32 37 37 31 27 26 23 21 19 16 14 12 10 9 8 8 9 9 9 9 5 3 3 5
174 163 165 221 196 147 107 116 114 112 127 100 357 328 23 87 87 82 71 60 77 92 92 108 128 137 139 140 140 140 142 139 134 132 126 119 114 114 117 118 114 113 109 102 99 93 85 80 76 69 65 60 57 55 51 46 45 43 38 35 33 30 28 31 33 31 27 25 24 23 21 19 17 14 11 10 10 10 10 10 11 11 8 5 4 5
176 174 157 321 180 133 105 114 126 133 150 129 331 3 86 96 90 83 74 62 69 86 96 109 128 139 139 138 136 135 136 133 128 122 106 100 106 114 118 117 115 114 110 107 107 100 93 87 78 70 67 63 59 56 53 49 46 44 41 37 33 30 29 28 28 29 27 26 25 23 21 19 18 15 12 12 13 13 12 11 12 12 10 9 7 5
178 181 148 64 79 136 139 152 145 120 89 162 110 85 89 99 98 86 70 56 70 100 113 122 134 137 135 135 132 131 131 123 111 100 97 103 112 115 115 116 118 117 114 113 109 101 93 85 78 73 66 61 59 58 54 50 49 48 44 40 36 31 30 31 29 26 25 26 25 24 22 19 16 15 14 13 13 15 15 12 11 11 9 9 11 10
177 184 150 104 142 168 148 121 115 136 218 182 152 130 108 95 107 106 89 66 80 113 126 131 134 135 134 134 132 131 128 117 108 107 113 116 115 116 121 122 122 120 117 114 110 104 97 87 81 77 71 65 60 58 56 50 49 52 47 41 40 34 31 33 31 26 25 25 24 26 25 19 15 14 14 13 13 15 18 16 12 9 7 8 13 15
156 186 156 147 193 189 147 120 138 169 185 192 182 161 107 81 99 107 103 96 115 130 134 136 136 137 138 137 136 137 130 117 118 130 132 128 125 127 128 125 125 124 120 117 114 106 96 88 83 78 74 72 62 54 53 49 47 50 44 39 41 37 30 28 28 29 28 24 23 27 27 23 19 15 14 14 12 13 17 18 15 11 7 6 12 16
109 32 7 155 193 197 174 163 162 150 122 165 171 159 119 115 128 120 110 146 155 147 145 143 140 142 144 142 142 146 139 121 130 144 147 142 137 135 132 127 127 125 119 116 112 104 98 96 92 81 72 69 61 52 49 48 46 45 41 37 37 37 30 22 23 31 30 22 21 28 29 26 22 17 16 16 14 15 17 17 16 15 11 9 10 14
92 45 0 195 198 197 176 153 127 67 57 135 157 155 138 141 156 170 210 182 162 160 156 149 146 147 146 146 152 161 153 138 145 149 148 145 140 136 133 129 129 127 121 119 117 112 108 103 91 82 74 69 65 56 51 52 50 45 43 40 35 33 30 22 22 30 30 21 22 28 29 28 26 22 21 19 16 17 18 16 14 15 15 12 10 11
80 62 47 221 199 172 144 113 98 82 87 133 153 159 156 161 183 211 210 147 153 158 157 152 150 148 149 156 167 155 107 118 135 141 142 143 139 136 135 135 135 130 126 130 130 115 103 93 84 81 77 75 74 67 59 55 51 48 47 44 36 29 26 24 24 25 25 23 23 27 30 31 29 27 25 21 19 19 20 19 15 13 15 14 11 12
112 105 152 249 203 137 99 97 110 101 71 169 149 143 159 187 196 174 97 121 141 151 153 153 151 150 156 161 140 108 108 119 130 137 140 140 139 140 140 138 133 129 133 148 142 115 100 95 89 83 77 75 74 69 63 55 48 49 47 42 39 32 22 24 29 26 25 25 22 25 32 32 29 30 27 22 19 18 20 22 19 14 12 13 12 14
102 135 164 171 102 106 108 113 120 112 202 199 152 125 159 231 144 115 116 125 137 146 148 148 148 152 154 138 116 116 122 128 134 137 137 140 143 141 137 136 139 146 158 168 145 115 104 100 91 82 74 71 68 67 65 57 48 49 43 36 43 39 22 24 35 30 25 28 24 25 33 30 26 32 31 22 18 18 18 22 22 16 11 11 11 14
17 15 159 130 0 190 149 133 108 114 138 179 165 115 93 110 121 125 128 131 138 144 143 142 143 145 139 127 123 127 129 132 136 138 139 143 142 138 142 153 160 159 151 135 118 109 106 102 95 87 78 70 64 60 60 55 50 49 41 34 41 40 22 22 35 32 25 26 25 28 34 29 23 35 38 24 17 17 17 21 24 18 12 11 11 12
36 64 92 79 38 61 93 93 104 111 111 111 102 99 104 114 125 131 131 132 139 143 142 139 136 135 133 130 131 132 133 136 139 140 141 141 140 145 152 151 142 131 120 112 109 106 102 98 93 88 82 74 67 60 57 53 47 44 38 34 37 36 24 17 27 37 33 22 15 23 33 26 17 30 45 31 19 19 19 21 25 19 14 13 11 10
125 119 101 93 97 83 59 61 99 106 103 100 100 106 112 117 126 133 132 134 138 138 140 141 137 134 136 137 136 135 137 139 140 139 140 141 148 151 142 125 118 118 117 115 112 110 106 100 94 87 82 76 69 63 61 59 52 44 40 36 34 39 33 14 16 43 46 22 7 19 32 24 14 26 47 37 24 25 24 23 27 24 18 16 13 9
139 130 113 119 129 112 77 90 108 106 110 111 109 113 116 117 125 131 130 133 136 137 141 141 136 135 139 141 138 136 138 140 139 140 144 147 149 142 128 122 124 123 116 111 112 113 110 103 97 91 85 78 69 62 60 62 61 54 49 42 35 39 41 18 9 37 50 29 7 13 28 25 16 22 41 42 32 31 29 26 31 30 25 23 19 14
122 118 113 115 120 114 112 122 117 109 112 116 116 120 122 123 126 126 125 130 133 135 137 137 137 141 142 140 139 138 138 141 143 145 147 145 138 130 125 126 126 119 115 117 116 112 107 102 98 93 86 79 71 67 61 50 47 48 48 44 38 38 41 26 11 25 48 40 12 5 18 27 18 18 32 45 41 37 36 37 41 37 31 30 29 24
94 106 105 104 109 114 121 128 125 118 117 121 123 125 125 125 126 126 127 130 130 130 134 137 141 142 138 138 142 140 139 145 151 149 141 133 130 129 126 126 124 122 123 120 110 105 102 100 98 93 85 78 73 74 69 52 46 47 42 39 41 41 41 33 18 16 35 48 26 5 10 22 19 18 28 37 38 42 46 48 51 47 35 31 31 30
94 107 111 115 124 136 145 147 141 132 130 132 129 126 125 126 126 128 130 131 132 135 139 139 138 138 138 141 144 143 147 157 157 145 132 127 129 129 126 126 127 127 126 120 109 105 101 98 96 92 86 82 77 72 67 59 53 51 42 37 42 42 38 40 33 15 11 31 38 18 9 11 11 15 21 21 16 26 50 49 43 41 35 29 30 30
88 103 137 147 144 146 150 152 146 132 132 134 130 126 127 131 131 131 133 135 137 139 139 137 137 139 140 144 148 151 153 150 141 132 127 128 129 129 129 130 128 127 126 122 115 111 109 105 101 95 86 82 79 73 69 62 50 43 41 39 40 40 35 42 48 27 5 7 19 22 19 13 7 9 13 12 11 16 21 26 27 26 22 19 22 26
Height
746 756 758 755 751 747 745 743 742 736 730 731 734 738 739 736 732 721 720 724 726 739 745 740 743 749 753 751 749 746 744 746 749 754 763 767 773 779 783 787 790 794 797 798 800 803 802 800 799 799 800 800 801 801 801 801 801 801 801 801 802 803 804 805 806 807 808 808 809 809 810 810 810 810 810 810 810 810 811 811 810 810 810 810 811 812
745 756 753 746 743 739 739 738 737 736 731 728 729 733 735 732 726 715 716 722 723 737 742 736 744 753 756 758 757 755 756 759 760 765 770 773 777 782 786 790 794 796 798 799 801 802 803 803 802 802 802 802 803 803 802 802 801 801 801 801 802 803 804 805 806 807 807 808 808 809 809 809 809 808 808 808 808 809 810 810 809 808 808 808 809 810
750 752 745 739 737 734 735 734 736 737 735 733 727 730 735 728 722 714 712 716 723 736 739 737 751 761 763 766 768 767 768 772 775 777 779 779 783 788 792 794 797 799 800 800 802 804 805 805 805 805 805 805 805 804 803 803 802 802 802 802 803 804 804 805 806 806 807 808 808 808 809 809 808 807 807 807 807 807 808 808 808 807 807 807 807 808
752 746 737 733 733 734 735 733 736 737 736 736 730 731 733 725 725 724 715 714 722 732 734 739 756 766 770 774 775 777 776 776 782 785 787 787 790 794 796 797 800 802 803 803 805 806 807 808 807 808 807 807 806 805 805 804 804 804 804 804 803 804 805 805 806 806 807 807 808 808 808 808 808 807 806 806 806 806 806 806 806 806 806 806 805 805
741 735 729 730 731 733 736 733 735 739 738 736 731 730 728 722 723 722 716 716 724 732 730 738 765 775 775 782 784 782 781 781 785 789 794 795 795 798 799 801 803 804 806 807 808 809 810 810 810 810 809 808 807 807 807 807 807 806 805 805 804 804 805 805 806 806 806 807 807 807 807 807 807 806 805 805 805 805 805 805 805 804 804 804 804 804
731 725 724 729 730 730 734 734 732 736 739 737 731 726 721 717 716 716 719 726 740 748 731 737 779 790 777 782 787 785 786 789 790 793 799 800 800 801 803 805 806 808 809 809 810 811 812 812 812 812 811 810 810 810 810 809 809 808 806 805 805 805 805 806 806 806 806 807 807 807 806 806 806 806 805 804 804 804 803 803 804 803 803 803 803 803
723 718 719 727 729 729 733 732 728 730 738 741 731 723 719 714 713 716 725 736 750 753 732 730 770 790 779 779 783 784 788 793 795 798 802 804 805 805 806 808 810 811 811 811 811 812 813 813 813 813 813 813 813 812 811 811 810 809 808 807 806 806 806 806 806 806 806 806 806 806 806 805 805 805 804 804 803 802 802 802 802 803 802 802 802 802
717 717 719 722 725 729 732 730 724 725 737 739 724 719 722 719 717 718 727 741 743 743 738 729 745 773 777 772 774 780 789 797 799 803 806 807 808 809 809 810 811 812 813 812 813 813 814 815 814 814 814 814 814 813 812 811 811 810 809 808 807 807 807 807 807 807 807 807 806 806 805 805 805 804 804 803 803 802 802 802 802 802 802 802 801 801
712 718 718 718 724 727 726 724 720 721 732 730 715 716 721 720 719 715 722 737 736 743 754 739 737 765 773 764 767 776 784 797 803 807 810 809 809 810 811 811 812 812 813 813 814 814 814 815 815 815 815 815 815 815 814 813 812 811 810 809 809 808 808 808 808 808 808 807 807 806 805 805 804 804 804 803 803 803 802 802 802 802 801 800 800 800
709 713 709 712 722 722 719 719 714 718 726 720 711 715 718 718 719 715 719 728 736 755 765 745 739 763 774 769 773 778 782 791 802 808 810 809 809 811 811 812 812 812 813 815 815 815 815 815 816 816 816 816 816 815 815 814 813 813 812 811 810 810 810 809 809 809 808 807 807 806 805 805 804 804 804 803 803 803 802 802 801 801 800 799 799 798
702 705 702 704 713 714 713 714 711 713 719 717 716 718 721 722 722 722 719 721 745 768 760 741 738 755 775 778 774 774 773 781 797 807 808 809 810 811 812 812 812 813 814 816 816 816 816 816 816 817 817 817 817 816 816 815 815 814 814 813 812 812 812 811 810 810 809 808 807 807 806 805 805 804 804 804 803 803 802 802 801 800 799 798 798 797
700 706 707 701 703 706 710 713 711 710 713 719 721 721 729 735 735 736 729 731 762 775 752 735 734 747 772 781 772 767 766 775 792 802 805 809 810 811 811 811 812 814 815 816 818 818 817 817 817 817 818 818 818 817 817 817 817 816 815 815 814 814 814 813 812 811 810 809 809 808 807 806 805 805 805 804 804 803 802 802 801 799 799 797 796 796
706 705 707 704 700 703 713 718 717 715 715 722 724 726 741 752 757 761 752 749 764 763 744 731 733 754 775 775 770 769 772 781 790 796 802 806 808 809 810 811 812 814 816 817 819 820 819 819 819 819 819 820 819 819 819 818 818 817 816 815 815 815 815 814 814 813 812 811 810 809 808 807 806 806 805 805 804 803 802 802 801 799 798 796 795 794
719 707 702 706 705 704 712 719 724 723 720 724 727 732 746 756 770 779 767 757 758 752 738 721 731 769 790 784 779 778 781 787 791 797 801 803 806 809 809 811 813 814 816 819 820 821 821 821 821 822 821 822 821 820 820 819 819 818 817 817 816 816 816 815 815 814 814 813 812 811 810 809 808 807 806 805 805 804 803 802 800 799 798 796 795 794
728 722 706 708 711 709 711 712 713 717 720 721 719 723 735 744 760 774 767 761 760 753 737 726 743 778 795 795 791 787 788 791 795 799 801 803 806 808 810 812 815 817 818 821 823 823 824 824 823 823 823 824 823 822 821 821 820 820 819 818 817 817 816 816 815 815 814 814 813 812 811 810 809 808 807 806 806 805 804 802 801 799 798 796 795 794
724 722 702 704 709 707 713 708 700 710 723 720 713 719 729 729 736 751 754 751 756 758 749 752 775 787 790 796 793 790 795 797 799 801 801 805 808 809 814 816 818 821 822 823 825 826 826 826 825 825 825 825 825 824 823 822 821 821 820 819 818 818 817 816 816 816 814 814 814 812 811 810 810 809 807 807 806 805 804 803 801 800 798 797 795 794
724 719 698 702 708 703 709 707 698 708 720 719 720 721 717 715 723 741 752 745 752 768 765 771 797 801 798 803 797 794 802 802 802 803 802 806 809 812 817 819 821 824 825 826 827 828 828 827 826 826 826 827 826 825 823 822 822 822 821 820 819 819 818 817 817 816 815 815 814 812 811 810 809 808 808 807 806 805 804 803 802 800 798 797 795 794
715 717 697 697 709 704 700 704 701 699 704 716 725 715 706 715 721 732 753 757 762 775 769 772 796 802 800 806 803 799 803 804 802 803 805 807 810 815 819 821 824 825 826 828 828 829 829 828 828 827 827 827 826 825 824 823 823 823 822 821 820 820 819 818 817 816 816 815 814 813 811 810 809 809 808 808 807 806 805 804 802 801 799 797 795 794
704 715 702 693 707 704 696 707 711 699 694 704 712 706 713 734 737 735 751 763 770 775 772 780 794 790 787 798 803 801 799 801 802 803 808 811 812 817 820 823 826 827 828 829 829 830 829 829 829 827 827 827 826 825 825 824 824 824 823 822 821 821 820 819 818 817 816 815 815 814 812 811 811 810 809 808 807 806 805 804 803 801 800 797 795 794
698 713 710 696 699 702 701 712 718 710 700 699 702 705 714 728 733 735 740 748 761 767 773 792 799 787 783 789 793 795 795 797 802 806 810 813 815 818 821 825 828 829 830 830 830 831 830 830 829 827 827 826 826 826 825 825 825 825 825 824 822 821 821 820 820 818 817 817 816 815 814 813 812 811 810 809 808 807 806 805 804 802 800 798 796 794
695 709 714 703 698 705 711 712 712 711 706 705 710 715 720 723 722 727 730 731 745 757 765 788 801 794 790 789 785 787 792 797 802 808 812 814 817 819 822 826 829 830 831 831 831 832 830 829 828 827 827 827 827 827 826 827 827 827 826 825 824 823 822 821 821 820 819 818 818 817 816 815 814 813 812 810 810 809 807 806 804 803 801 799 797 795
696 706 713 709 706 711 710 703 703 705 701 706 714 714 718 723 726 737 742 729 730 742 747 765 791 798 796 793 786 784 791 798 802 807 813 815 818 822 825 828 830 831 831 832 832 832 830 828 828 828 828 828 829 829 828 828 828 829 828 826 825 824 823 823 822 821 820 820 819 818 817 816 815 813 813 812 811 810 808 807 805 803 801 799 798 796
693 703 711 712 708 707 702 696 700 703 697 699 707 707 709 716 722 738 747 733 727 733 733 751 787 804 800 795 789 786 790 798 803 807 812 817 820 824 827 829 831 831 832 832 832 831 830 829 830 829 829 830 830 830 830 830 829 830 829 827 826 825 824 824 823 822 822 820 820 818 817 817 815 815 814 813 812 811 809 807 805 804 802 800 798 797
695 706 714 716 710 702 697 694 696 700 699 700 702 704 708 710 711 720 726 723 731 737 738 762 796 808 804 798 790 789 793 799 804 808 813 819 823 825 828 830 831 832 832 832 831 830 830 830 830 830 830 830 831 831 831 831 831 830 829 827 827 826 825 825 824 823 822 821 820 819 818 818 817 816 815 814 813 812 810 808 806 804 802 801 799 797
702 711 714 721 725 720 714 710 707 704 703 704 704 705 707 704 703 710 712 719 736 737 733 760 796 806 805 800 794 795 800 804 808 811 815 820 824 826 828 830 831 832 832 831 831 830 829 829 830 831 831 831 831 832 832 832 831 830 829 828 827 826 826 825 825 824 823 822 822 821 820 819 819 818 817 816 814 813 811 809 807 805 803 802 800 798
702 710 712 723 734 735 731 723 713 708 707 706 703 703 705 704 705 712 718 729 741 735 731 759 794 808 808 803 800 802 805 809 813 814 817 820 824 826 828 830 831 831 832 832 832 832 831 831 832 832 832 833 833 834 834 833 832 831 830 829 828 827 827 826 826 825 824 824 823 823 822 821 821 820 818 817 815 814 812 810 808 806 805 803 801 799
700 706 707 713 718 721 721 711 699 701 708 708 704 703 704 705 706 711 720 730 732 734 754 776 788 803 812 808 806 807 808 813 815 816 820 822 824 827 828 829 830 830 831 832 833 834 834 834 835 835 835 835 835 836 836 834 833 832 831 830 829 828 828 827 827 826 826 826 826 826 825 823 823 821 820 818 817 815 813 811 810 808 806 804 802 800
704 709 707 708 710 710 710 703 694 696 702 704 705 708 706 706 709 713 720 727 723 736 772 787 781 794 810 809 808 810 811 814 816 817 821 822 824 827 827 827 828 829 832 833 833 834 836 837 837 838 838 838 837 837 836 835 834 833 832 831 830 830 830 830 829 829 829 829 829 828 827 826 825 823 821 820 818 816 814 813 811 809 808 806 804 802
706 712 711 713 714 711 708 706 702 698 698 702 708 712 709 707 710 715 722 728 728 741 769 783 784 793 804 808 811 812 813 816 817 818 820 822 824 826 826 826 828 830 832 833 835 836 837 839 840 841 841 840 839 839 837 836 835 834 833 833 832 832 832 832 832 832 832 832 831 831 829 828 826 824 823 821 819 818 816 814 813 811 809 807 806 804
702 712 714 716 718 713 708 710 710 706 704 705 707 709 710 710 710 712 722 732 740 751 764 774 786 796 801 807 812 813 815 817 818 819 820 821 824 824 824 826 829 831 833 835 837 838 839 841 842 842 842 842 841 840 838 837 836 835 835 835 835 835 834 835 835 834 835 834 834 833 831 829 828 826 824 822 820 819 817 816 814 812 811 809 808 806
702 715 714 717 727 725 715 715 716 715 716 713 709 711 714 719 721 723 732 741 749 762 770 776 790 802 805 808 812 816 818 819 820 821 819 820 822 822 824 828 830 832 834 836 838 840 842 843 843 844 843 843 842 841 839 838 838 837 837 837 837 837 836 837 837 837 837 836 835 834 832 831 829 827 826 824 823 821 819 818 816 814 813 811 809 808
704 716 718 722 733 731 722 723 725 722 725 727 730 734 734 735 739 743 747 746 749 766 781 786 795 804 807 811 816 819 820 820 821 820 819 820 821 822 826 829 831 834 836 839 840 842 844 845 845 845 845 844 843 841 840 839 839 839 839 838 838 838 838 838 838 838 838 837 836 835 833 832 831 829 828 826 825 823 822 820 818 817 815 813 811 810
706 721 731 731 735 737 731 729 729 730 739 748 753 753 749 746 747 752 755 751 751 764 777 781 789 801 808 812 817 820 821 822 822 820 821 822 821 824 828 830 834 837 839 842 844 844 846 846 846 846 845 844 843 842 841 841 840 841 840 840 840 840 839 839 838 838 838 837 836 835 834 833 832 831 830 828 826 825 823 822 820 819 817 815 813 812
710 723 735 731 732 745 745 734 734 746 758 765 762 753 748 750 754 760 768 769 768 771 772 776 788 802 810 812 816 820 822 823 823 822 822 822 824 827 831 834 837 840 842 845 846 846 847 847 846 846 845 845 844 843 843 842 842 842 842 842 842 841 840 840 839 839 838 838 837 836 836 835 833 832 831 829 828 826 824 823 822 820 819 817 815 814
714 719 730 732 733 747 754 746 749 763 768 768 763 751 748 754 759 766 775 778 779 783 783 788 798 804 808 812 815 820 823 823 824 825 824 826 829 831 834 837 840 842 844 846 847 847 848 847 847 846 845 845 844 843 844 843 843 843 843 843 843 842 841 841 840 840 840 839 839 838 837 836 835 834 832 830 829 827 826 825 823 822 820 819 817 816
715 718 725 737 744 752 758 756 761 772 771 766 764 758 758 763 763 769 782 786 785 789 791 796 803 805 808 814 817 820 823 824 826 829 830 831 833 835 838 840 842 844 846 846 847 848 847 847 847 847 846 845 845 845 845 845 844 845 844 844 844 843 843 842 842 841 841 840 840 839 838 838 836 835 833 831 830 828 827 826 825 823 822 820 819 818
709 716 722 740 750 751 757 766 774 781 777 770 767 763 761 764 762 767 787 797 791 790 794 798 803 808 812 815 818 820 823 827 832 836 835 835 837 838 840 842 844 845 846 847 848 848 847 848 848 847 847 847 846 846 846 846 846 846 846 845 845 844 844 843 843 843 842 841 841 840 840 839 838 836 835 833 831 829 828 827 826 825 824 822 820 819
709 714 720 737 745 741 751 769 774 774 772 768 767 761 757 762 763 765 785 801 797 793 798 802 805 811 814 815 819 822 823 830 839 841 839 839 839 840 841 843 844 845 846 847 847 847 848 848 848 848 848 847 847 847 847 847 847 847 846 846 846 846 846 845 844 844 843 843 842 841 841 841 840 838 837 835 833 832 830 829 828 827 825 824 822 820
716 719 722 731 737 736 744 755 758 760 763 761 760 760 758 761 764 765 780 800 802 798 801 806 809 812 814 816 820 820 821 831 842 842 839 840 840 841 842 843 844 846 846 847 847 848 849 849 849 848 848 848 849 849 848 849 848 848 848 848 847 848 847 846 845 845 845 844 843 843 842 842 841 840 838 837 835 834 832 831 830 829 828 826 824 822
725 731 735 735 736 736 740 749 758 764 763 756 755 758 757 758 765 770 776 788 797 800 802 806 809 811 814 817 819 817 817 827 836 838 837 839 840 842 843 844 845 846 847 848 848 848 848 849 849 849 849 850 850 850 850 850 850 850 850 849 849 849 848 848 847 846 846 845 844 844 843 843 842 841 840 839 837 836 835 833 832 831 829 828 826 824
734 739 742 739 737 738 743 754 764 767 763 757 755 756 756 760 769 772 770 775 788 798 801 804 808 811 813 816 817 815 817 823 829 833 836 838 840 843 845 845 846 846 847 848 848 847 848 849 849 850 850 851 851 852 852 852 851 851 851 851 851 850 849 849 848 847 847 846 845 844 844 843 843 842 841 840 839 838 837 835 834 832 830 829 828 826
740 744 745 744 744 747 749 756 765 769 765 758 755 755 758 764 770 772 772 777 786 794 799 803 806 809 812 814 816 818 821 825 830 833 836 839 841 842 844 845 845 847 847 847 847 848 849 850 850 851 851 852 852 853 853 853 852 852 852 852 852 852 851 850 849 848 848 847 846 845 844 844 844 843 842 842 840 839 838 837 836 834 832 830 829 827
738 744 749 752 753 754 757 761 766 769 765 758 757 760 763 766 770 773 777 783 789 793 797 802 805 807 811 814 817 821 825 828 831 834 837 840 841 841 843 845 846 847 846 846 846 848 849 851 851 852 852 853 853 854 854 854 854 853 853 853 852 853 852 851 850 850 849 848 847 846 845 845 844 843 843 842 841 840 839 837 836 835 833 831 829 828
736 738 745 755 757 753 758 765 765 762 759 756 757 762 764 765 768 772 776 783 789 793 796 800 804 807 810 814 818 823 826 829 832 835 837 839 840 841 843 844 844 845 845 845 846 848 850 851 852 853 854 854 854 855 855 855 855 854 854 854 853 854 853 851 851 851 850 849 848 847 846 846 845 844 843 843 842 840 839 838 837 836 834 832 831 829
743 739 741 755 760 756 759 765 762 758 758 757 758 763 766 767 769 773 777 782 788 792 795 799 804 808 812 816 820 824 827 829 832 835 837 838 841 842 841 840 841 844 845 846 847 849 850 851 852 853 854 855 855 856 856 856 856 855 855 855 855 855 854 853 852 851 851 850 849 847 847 846 845 844 843 843 842 841 840 839 837 836 835 834 832 830
743 741 743 754 762 761 763 765 761 760 762 761 762 766 769 770 773 776 779 784 788 793 797 801 806 810 814 818 821 824 827 829 831 834 837 838 839 839 838 840 842 845 846 847 848 850 851 852 854 854 855 856 856 857 857 857 857 857 856 856 856 855 855 854 852 852 852 852 850 848 848 847 846 844 843 843 842 842 841 840 839 838 837 836 834 832
734 735 742 750 756 763 770 771 766 765 767 766 767 770 771 775 778 780 783 788 792 796 801 804 808 813 816 819 821 823 826 829 831 834 836 837 836 836 838 842 844 846 847 848 849 850 851 853 854 855 856 857 857 857 857 857 857 857 857 857 857 856 856 855 854 853 853 853 851 849 848 847 846 845 844 843 843 843 842 841 840 839 838 837 836 834
730 733 741 749 756 764 773 773 768 769 770 769 771 774 775 778 782 784 788 793 796 799 804 807 811 814 816 819 822 823 826 829 831 832 832 834 835 837 840 843 845 847 849 850 850 851 852 853 855 856 857 858 858 858 859 858 858 858 858 858 858 857 857 856 855 854 854 854 853 851 849 848 847 846 845 844 843 843 843 842 841 840 839 838 837 836
728 735 745 754 763 771 774 772 771 774 776 774 774 777 778 781 784 787 791 795 799 803 807 810 813 814 815 819 821 823 825 828 828 828 830 833 836 839 841 844 846 848 850 851 851 852 853 855 856 857 858 858 859 859 859 859 859 859 859 859 858 858 858 858 857 855 854 854 854 852 850 849 848 847 846 845 844 843 843 842 842 841 840 839 839 837
733 745 752 759 769 774 773 771 771 775 778 779 778 779 782 784 787 790 793 797 801 804 807 809 812 815 816 819 821 822 823 825 825 827 830 834 837 840 842 845 847 849 850 852 853 854 855 856 857 858 859 859 860 860 860 860 860 860 860 859 859 859 859 858 858 857 856 854 854 854 852 850 849 848 847 846 845 844 843 843 843 842 841 840 839 839
738 745 747 752 761 765 765 766 768 772 777 779 780 782 785 787 790 793 796 798 801 804 806 807 811 814 816 819 820 820 821 821 823 827 832 835 838 841 843 845 847 849 851 852 853 855 856 857 858 859 859 860 860 860 861 861 861 861 860 860 860 860 859 859 859 859 857 856 855 854 853 852 851 849 849 848 846 845 844 844 843 842 842 841 840 839